Regional Weather Roundup
Issued by NWS Newport/Morehead, NC

Current Version | Previous Version | Text Only | Print | Product List | Glossary On
Versions: 1 2 3 4 5 6 7 8 9 10 11 12 13 14 15 16 17 18 19 20 21 22 23 24 25 26 27 28 29 30 31 32 33 34 35 36 37 38 39 40 41 42 43 44 45 46 47 48 49 50
000
ASUS42 KMHX 260822
RWRMHX
WEATHER ROUNDUP FOR EASTERN NORTH CAROLINA
NATIONAL WEATHER SERVICE NEWPORT/MOREHEAD CITY NC
300 AM EST FRI DEC 26 2014

NOTE: "FAIR" INDICATES FEW OR NO CLOUDS BELOW 12,000 FEET
WITH NO SIGNIFICANT WEATHER AND/OR OBSTRUCTIONS TO VISIBILITY

NCZ015>017-031-032-045>047-102-103-260900-
NORTH COAST

CITY           SKY/WX    TMP DP  RH WIND       PRES   REMARKS
EDENTON          N/A     34  32  94 CALM      30.26S
ELIZABETH CITY CLEAR     45  34  65 W3        30.26R
KITTY HAWK     SUNNY     45  39  79 CALM      30.24R
MANTEO         CLEAR     39  37  93 CALM      30.26S

$$

NCZ045>047-081-094-103-104-260900-
CENTRAL COAST

CITY           SKY/WX    TMP DP  RH WIND       PRES   REMARKS
FRISCO         CLEAR     44  40  85 CALM      30.26R
SWANQUARTER      N/A     39 N/A N/A CALM      30.21F

$$

NCZ095-097-098-100-101-260900-
SOUTHERN COAST

CITY           SKY/WX    TMP DP  RH WIND       PRES   REMARKS
BEAUFORT       PTCLDY    38  37  97 CALM      30.27R
CEDAR ISLAND     N/A     48 N/A N/A N6        30.30S
JACKSONVILLE   CLEAR     38  36  92 CALM      30.27R FOG
PINEY ISLAND   SUNNY     48  41  76 N6        30.26R
WILMINGTON     CLEAR     38  37  97 CALM      30.27R


$$

NCZ011>013-027>030-043-044-078>080-089-090>093-098-260900-
COASTAL PLAIN

CITY           SKY/WX    TMP DP  RH WIND       PRES   REMARKS
AHOSKIE        CLEAR     31  30  96 CALM      30.26F
CLINTON        CLEAR     35  35 100 CALM      30.28S
ELIZABETHTOWN  PTCLDY    37  35  94 CALM      30.27S
GOLDSBORO      CLEAR     35  35  99 CALM      30.26R
GREENVILLE     SNOW      34  34 100 CALM      30.28R VSB 1/2
HAVELOCK       PTCLDY    38  35  89 CALM      30.28R
KENANSVILLE    CLEAR     32  32 100 CALM      30.29R
KINSTON        CLEAR     33  32  98 CALM      30.28R
NEW BERN       FOG       37  35  92 CALM      30.28S VSB 1/4
RICHLANDS      CLEAR     34  30  86 CALM      30.28R
ROCKY MOUNT    CLEAR     33  32  96 CALM      30.26F
WASHINGTON     CLEAR     35  33  94 CALM      30.28R
WHITEVILLE     CLEAR     37  36  96 CALM      30.26F

$$

AMZ130-135-150-152-154-156-158-170-250-252-270-ANZ085-086-088-633-658-670-260900-
MARINE OBSERVATIONS

STATION/POSITION TIME  TEMP    WIND        PRES    WAVE   SWELL
                       AIR SEA DIR/SP/G            HT/PER HT/PER
                 (UTC) (F)     (DEG/KT/KT) (MB)    (FT/S) (FT/S)
CHESAPEAKE LIGHT 0800   48      10/ 10/ 11 1025.0
64 E VA BEACH    0800   52 52  290/  4/  4 1023.8    3/ 5   3/ 5
DUCK             0800   47 50  330/  7/  8 1023.5
2 E DUCK         0800      50                N/A     2/10
10 NE DUCK       0800      50                N/A     2/ 8
OREGON INLET     0800   47 54  320/  3/  4 1024.3
13E OREGON INLT  0800      51                N/A     3/ 8   2/11
HATTERAS CG      0800   51 57  340/  6/  7 1024.8
DIAMOND BUOY     0800   54                 1024.6    4/ 7
17 S OCRACOKE    NOT AVBL
CAPE LOOKOUT     0800   51      20/  7/  7 1024.5
BEAUFORT LAB     0800   46 55   10/  1/  2 1023.8
30 SE NEW RIVER  0800   56 60   40/ 10/ 12 1025.0    3/ 8   3/ 8
5 SE WRIGHTSVLE  NOT AVBL
225 S CAPE HAT   0726   67 73   30/ 10/ 12 1023.5    6/ 8   5/ 8
41 SE CHARLESTON 0800   60 71   40/  8/ 12 1024.3    2/ 8   2/ 8

$$



USA.gov is the U.S. government's official web portal to all federal, state and local government web resources and services.